This is the latest recevied weather packets stored in our database for station/object VA7NIC-10. If no packets are shown the sender has not sent any weather packets the latest 1 day(s).
| Time | Temp. | Humidity | Pressure | Rain* | Wind** | Luminosity | Snow |
|---|---|---|---|---|---|---|---|
| 1778008922 | 18.33° C | 71% | 1013.8 hPa | 0 mm | 0 m/s | - | - |
| 1778008022 | 17.78° C | 72% | 1013.9 hPa | 0 mm | 0 m/s | - | - |
| 1778007122 | 17.78° C | 73% | 1014 hPa | 0 mm | 0 m/s | - | - |
| 1778006221 | 16.67° C | 76% | 1014.1 hPa | 0 mm | 0 m/s | - | - |
| 1778005321 | 16.11° C | 78% | 1014 hPa | 0 mm | 0 m/s | - | - |
| 1778004421 | 15° C | 81% | 1014 hPa | 0 mm | 0 m/s | - | - |
| 1778003521 | 14.44° C | 82% | 1014.2 hPa | 0 mm | 0 m/s | - | - |
| 1778002621 | 13.89° C | 84% | 1014.2 hPa | 0 mm | 0 m/s | - | - |
| 1778001721 | 13.33° C | 85% | 1014.2 hPa | 0 mm | 0 m/s | - | - |
| 1778000821 | 12.78° C | 86% | 1014.2 hPa | 0 mm | 0 m/s | - | - |
| 1777999921 | 12.78° C | 86% | 1014.2 hPa | 0 mm | 0 m/s | - | - |
| 1777999021 | 12.22° C | 86% | 1014.2 hPa | 0 mm | 0 m/s | - | - |
| 1777998122 | 12.22° C | 86% | 1014.1 hPa | 0 mm | 0 m/s | - | - |
| 1777997222 | 12.22° C | 87% | 1014 hPa | 0 mm | 0 m/s | - | - |
| 1777996322 | 12.22° C | 87% | 1014 hPa | 0 mm | 0 m/s | - | - |
| 1777995422 | 12.22° C | 87% | 1013.8 hPa | 0 mm | 0 m/s | - | - |
| 1777994522 | 11.67° C | 87% | 1013.7 hPa | 0 mm | 0 m/s | - | - |
| 1777993621 | 11.67° C | 88% | 1013.5 hPa | 0 mm | 0 m/s | - | - |
| 1777992721 | 11.67° C | 88% | 1013.4 hPa | 0 mm | 0 m/s | - | - |
| 1777991821 | 11.67° C | 88% | 1013.2 hPa | 0 mm | 0 m/s | - | - |
| 1777990921 | 11.67° C | 88% | 1013.1 hPa | 0 mm | 0 m/s | - | - |
| 1777990021 | 11.11° C | 88% | 1013 hPa | 0 mm | 0 m/s | - | - |
| 1777989121 | 11.11° C | 88% | 1012.8 hPa | 0 mm | 0 m/s | - | - |
| 1777988221 | 11.11° C | 88% | 1012.8 hPa | 0 mm | 0 m/s | - | - |
| 1777987321 | 10.56° C | 88% | 1012.6 hPa | 0 mm | 0 m/s | - | - |
* Rain latest hour (hover to see other rain measurements)
** Current wind speed in m/s (hover to see current wind gust speed)